CAPE
13 21 17 17 25 2 6 6 39 54 27 34 12 37 51 24 34 26 42 99 162 238 513 369 257 176 0 0 0 0 0 0 9 0 0 0 0 0 0 0 0 0 0 0 0 0 0
3 15 16 12 16 4 5 7 17 50 28 47 31 37 57 41 27 24 20 112 115 103 132 63 20 1 0 0 0 0 0 0 0 0 0 0 0 0 0 0 0 0 0 0 0 0 0
6 5 4 10 9 7 3 5 4 30 22 31 38 28 71 75 44 57 68 76 49 66 45 49 52 1 0 0 0 0 0 0 0 0 0 0 0 0 0 0 0 0 0 0 0 0 0
11 4 2 2 11 11 5 5 4 8 15 14 34 22 30 54 84 31 52 40 76 40 47 37 68 0 0 0 0 0 0 0 0 0 0 0 0 0 0 0 0 0 0 0 0 0 0
20 13 5 4 7 6 3 4 3 2 3 0 7 5 9 23 80 34 85 76 81 112 107 94 18 0 4 39 0 0 0 0 0 0 0 0 0 0 0 0 0 0 0 0 0 0 0
20 23 23 17 8 2 3 3 6 3 0 1 0 0 0 28 89 20 21 53 85 37 15 21 15 0 0 0 0 0 0 0 0 0 0 0 0 0 0 0 0 0 0 0 0 0 0
19 22 22 17 10 3 3 2 4 4 0 0 0 0 0 17 59 11 0 0 0 0 0 0 0 0 0 0 0 0 0 0 0 0 0 0 0 0 0 0 0 0 0 0 0 0 0
15 17 21 21 14 3 2 2 1 3 1 0 0 0 0 0 13 0 0 0 0 0 0 0 0 0 0 0 0 0 0 0 0 0 0 0 0 0 0 0 0 0 0 0 0 0 0
8 6 14 16 9 5 2 4 2 0 2 0 0 0 0 0 0 0 0 0 0 0 0 0 0 0 0 0 0 0 0 0 0 0 0 0 0 0 0 0 0 0 0 0 0 0 0
12 5 5 7 8 5 2 1 3 2 0 0 0 0 0 0 0 0 0 0 0 0 0 0 0 0 0 0 0 0 0 0 0 0 0 0 0 0 0 0 0 0 0 0 0 0 0
2 4 2 6 6 6 5 5 4 2 0 0 0 0 0 0 0 0 0 0 0 0 0 0 0 0 0 0 0 0 0 0 0 0 0 0 0 0 0 0 0 0 0 0 0 0 0
1 2 4 2 2 4 2 1 5 2 0 0 0 0 0 0 0 0 0 0 0 0 0 0 0 0 0 0 0 0 0 0 0 0 0 0 0 0 0 0 0 0 0 0 0 0 0
1 1 2 1 1 1 5 4 4 1 0 0 0 0 0 0 0 0 0 0 0 0 0 0 0 0 0 0 0 0 0 0 0 0 0 0 0 0 0 0 0 0 0 0 0 0 0
5 1 1 2 1 0 5 4 3 1 0 0 0 0 0 0 0 0 0 0 0 0 0 0 0 0 0 0 0 0 0 0 0 0 0 0 0 0 0 0 0 0 0 0 0 0 0
13 2 0 1 1 3 3 4 3 1 0 0 0 0 0 0 0 0 0 0 0 0 0 0 0 0 0 0 0 0 0 0 0 0 0 0 0 0 0 0 0 0 0 0 0 0 0
13 16 2 1 2 8 5 3 3 1 1 0 0 0 0 0 0 0 0 0 0 0 0 0 0 0 0 0 0 0 0 0 0 0 0 0 0 0 0 0 0 0 0 0 0 0 0
7 9 12 3 0 7 6 5 2 3 1 0 0 0 0 0 0 0 0 0 0 0 0 0 0 0 0 0 0 0 0 0 0 0 0 0 0 0 0 0 0 0 0 0 0 0 0
2 15 3 2 4 3 4 5 3 3 0 0 0 0 0 0 0 0 0 0 0 0 0 0 0 0 0 0 0 0 0 0 0 0 0 0 0 0 0 0 0 0 0 0 0 0 0
3 1 13 3 4 1 7 1 2 3 0 0 0 0 0 0 0 0 0 0 0 0 0 0 0 0 0 0 0 0 0 0 0 0 0 0 0 0 0 0 0 0 0 0 0 0 0
0 0 0 13 7 3 5 1 1 1 0 0 0 0 0 0 0 0 0 0 0 0 0 0 0 0 0 0 0 0 0 0 0 0 0 0 0 0 0 0 0 0 0 0 0 0 0
0 0 0 0 12 0 1 0 0 0 0 0 0 0 0 0 0 0 0 0 0 0 0 0 0 0 0 0 0 0 0 0 0 0 0 0 0 0 0 0 0 0 0 0 0 0 0
0 0 0 0 4 2 0 0 0 0 0 0 0 0 0 0 0 0 0 0 0 0 0 0 0 0 0 0 0 0 0 0 0 0 0 0 0 0 0 0 0 0 0 0 0 0 0
0 0 0 0 0 2 0 0 0 0 0 0 0 0 0 0 0 0 0 0 0 0 0 0 0 0 0 0 0 0 0 0 0 0 0 0 0 0 0 0 0 0 0 0 0 0 0
1 0 0 0 0 0 1 0 0 0 0 0 0 0 0 0 0 0 0 0 0 0 0 0 0 0 0 0 0 0 0 0 0 0 0 0 0 0 0 0 0 0 0 0 0 0 0
1 1 0 0 0 0 0 0 0 0 0 0 0 0 0 0 0 0 0 0 0 0 0 0 0 0 0 0 0 0 0 0 0 0 0 0 0 0 0 0 0 0 0 0 0 0 0
1 2 0 0 0 0 0 0 0 0 0 0 0 0 0 0 0 0 0 0 0 0 0 0 0 0 0 0 0 0 0 0 0 0 0 0 0 0 0 0 0 0 0 0 0 0 0
6 1 2 0 0 0 0 0 0 0 0 0 0 0 0 0 0 0 0 0 0 0 0 0 0 0 0 0 0 0 0 0 0 0 0 0 0 0 0 0 0 0 0 0 0 0 0
3 2 1 1 0 0 0 0 0 0 0 0 0 0 0 0 0 0 0 0 0 0 0 0 0 0 0 0 0 0 0 0 0 0 0 0 0 0 0 0 0 0 0 0 0 0 0
4 2 2 1 0 0 0 0 0 2 0 0 0 0 0 0 0 0 0 0 0 0 0 0 0 0 0 0 0 0 0 0 0 0 0 0 0 0 0 0 0 0 0 0 0 0 0
CIN
-0 -0 -0 -0 -0 -0 -0 -0 -0 -0 -1 -0 -3 -0 -2 -16 -2 -0 -0 -1 -2 -2 -0 -0 -0 -23 -0 -0 -0 -0 -0 -0 -56 -0 -0 -0 -0 -0 -0 -0 -0 -0 -0 -0 -0 -0 -0
-0 -0 -0 -0 -0 -0 -0 -0 -0 -0 -6 -3 -8 -0 -0 -13 -13 -10 -2 -0 -0 -0 -0 -0 -9 -28 -0 -0 -0 -0 -0 -0 -0 -0 -0 -0 -0 -0 -0 -0 -0 -0 -0 -0 -0 -0 -0
-0 -0 -1 -0 -1 -0 -0 -0 -0 -2 -10 -15 -22 -16 -5 -1 -36 -67 -30 -4 -17 -0 -7 -3 -6 -46 -0 -0 -0 -0 -0 -0 -0 -0 -0 -0 -0 -0 -0 -0 -0 -0 -0 -0 -0 -0 -0
-0 -0 -0 -0 -1 -0 -0 -0 -0 -3 -10 -33 -48 -39 -38 -16 -6 -52 -83 -67 -38 -43 -45 -30 -22 -29 -0 -3 -0 -0 -0 -0 -0 -0 -0 -0 -0 -0 -0 -0 -0 -0 -0 -0 -0 -0 -0
-1 -0 -1 -0 -0 -0 -0 -0 -0 -0 -0 -0 -55 -83 -73 -75 -32 -50 -52 -70 -42 -9 -32 -8 -47 -17 -4 -12 -0 -0 -0 -0 -0 -0 -0 -0 -0 -0 -0 -0 -0 -0 -0 -0 -0 -0 -0
-0 -0 -0 -0 -0 -0 -0 -0 -0 -0 -0 -0 -0 -0 -0 -109 -87 -152 -147 -86 -95 -47 -19 -76 -87 -0 -0 -2 -0 -0 -0 -0 -0 -0 -0 -0 -0 -0 -0 -0 -0 -0 -0 -0 -0 -0 -0
-1 -1 -0 -0 -1 -1 -0 -0 -0 -0 -0 -0 -0 -0 -0 -169 -140 -192 -0 -0 -0 -0 -0 -0 -0 -0 -0 -0 -0 -0 -0 -0 -0 -0 -0 -0 -0 -0 -0 -0 -0 -0 -0 -0 -0 -0 -0
-0 -0 -0 -0 -0 -0 -0 -0 -0 -0 -0 -0 -0 -0 -0 -0 -189 -0 -0 -0 -0 -0 -0 -0 -0 -0 -0 -0 -0 -0 -0 -0 -0 -0 -0 -0 -0 -0 -0 -0 -0 -0 -0 -0 -0 -0 -0
-0 -0 -0 -0 -0 -0 -0 -0 -0 -0 -0 -0 -0 -0 -0 -0 -0 -0 -0 -0 -0 -0 -0 -0 -0 -0 -0 -0 -0 -0 -0 -0 -0 -0 -0 -0 -0 -0 -0 -0 -0 -0 -0 -0 -0 -0 -0
-0 -0 -0 -0 -0 -0 -0 -0 -0 -0 -0 -0 -0 -0 -0 -0 -0 -0 -0 -0 -0 -0 -0 -0 -0 -0 -0 -0 -0 -0 -0 -0 -0 -0 -0 -0 -0 -0 -0 -0 -0 -0 -0 -0 -0 -0 -0
-0 -0 -0 -0 -0 -0 -0 -0 -0 -0 -0 -0 -0 -0 -0 -0 -0 -0 -0 -0 -0 -0 -0 -0 -0 -0 -0 -0 -0 -0 -0 -0 -0 -0 -0 -0 -0 -0 -0 -0 -0 -0 -0 -0 -0 -0 -0
-0 -0 -0 -0 -0 -0 -0 -0 -0 -0 -0 -0 -0 -0 -0 -0 -0 -0 -0 -0 -0 -0 -0 -0 -0 -0 -0 -0 -0 -0 -0 -0 -0 -0 -0 -0 -0 -0 -0 -0 -0 -0 -0 -0 -0 -0 -0
-0 -0 -0 -0 -0 -0 -0 -0 -0 -0 -0 -0 -0 -0 -0 -0 -0 -0 -0 -0 -0 -0 -0 -0 -0 -0 -0 -0 -0 -0 -0 -0 -0 -0 -0 -0 -0 -0 -0 -0 -0 -0 -0 -0 -0 -0 -0
-0 -0 -0 -0 -0 -0 -0 -0 -0 -0 -0 -0 -0 -0 -0 -0 -0 -0 -0 -0 -0 -0 -0 -0 -0 -0 -0 -0 -0 -0 -0 -0 -0 -0 -0 -0 -0 -0 -0 -0 -0 -0 -0 -0 -0 -0 -0
-0 -0 -0 -0 -0 -0 -0 -0 -0 -0 -0 -0 -0 -0 -0 -0 -0 -0 -0 -0 -0 -0 -0 -0 -0 -0 -0 -0 -0 -0 -0 -0 -0 -0 -0 -0 -0 -0 -0 -0 -0 -0 -0 -0 -0 -0 -0
-1 -0 -0 -0 -0 -0 -0 -0 -0 -0 -0 -0 -0 -0 -0 -0 -0 -0 -0 -0 -0 -0 -0 -0 -0 -0 -0 -0 -0 -0 -0 -0 -0 -0 -0 -0 -0 -0 -0 -0 -0 -0 -0 -0 -0 -0 -0
-0 -0 -0 -0 -0 -0 -0 -0 -0 -0 -0 -0 -0 -0 -0 -0 -0 -0 -0 -0 -0 -0 -0 -0 -0 -0 -0 -0 -0 -0 -0 -0 -0 -0 -0 -0 -0 -0 -0 -0 -0 -0 -0 -0 -0 -0 -0
-0 -1 -0 -0 -0 -0 -0 -0 -0 -0 -0 -0 -0 -0 -0 -0 -0 -0 -0 -0 -0 -0 -0 -0 -0 -0 -0 -0 -0 -0 -0 -0 -0 -0 -0 -0 -0 -0 -0 -0 -0 -0 -0 -0 -0 -0 -0
-0 -0 -2 -0 -2 -0 -0 -0 -0 -0 -0 -0 -0 -0 -0 -0 -0 -0 -0 -0 -0 -0 -0 -0 -0 -0 -0 -0 -0 -0 -0 -0 -0 -0 -0 -0 -0 -0 -0 -0 -0 -0 -0 -0 -0 -0 -0
-0 -0 -0 -3 -2 -1 -0 -0 -0 -0 -0 -0 -0 -0 -0 -0 -0 -0 -0 -0 -0 -0 -0 -0 -0 -0 -0 -0 -0 -0 -0 -0 -0 -0 -0 -0 -0 -0 -0 -0 -0 -0 -0 -0 -0 -0 -0
-0 -0 -0 -0 -1 -0 -0 -0 -0 -0 -0 -0 -0 -0 -0 -0 -0 -0 -0 -0 -0 -0 -0 -0 -0 -0 -0 -0 -0 -0 -0 -0 -0 -0 -0 -0 -0 -0 -0 -0 -0 -0 -0 -0 -0 -0 -0
-0 -0 -0 -0 -4 -2 -0 -0 -0 -0 -0 -0 -0 -0 -0 -0 -0 -0 -0 -0 -0 -0 -0 -0 -0 -0 -0 -0 -0 -0 -0 -0 -0 -0 -0 -0 -0 -0 -0 -0 -0 -0 -0 -0 -0 -0 -0
-0 -0 -0 -0 -0 -3 -0 -0 -0 -0 -0 -0 -0 -0 -0 -0 -0 -0 -0 -0 -0 -0 -0 -0 -0 -0 -0 -0 -0 -0 -0 -0 -0 -0 -0 -0 -0 -0 -0 -0 -0 -0 -0 -0 -0 -0 -0
-1 -0 -0 -0 -0 -0 -4 -0 -0 -0 -0 -0 -0 -0 -0 -0 -0 -0 -0 -0 -0 -0 -0 -0 -0 -0 -0 -0 -0 -0 -0 -0 -0 -0 -0 -0 -0 -0 -0 -0 -0 -0 -0 -0 -0 -0 -0
-0 -0 -0 -0 -0 -0 -0 -9 -0 -0 -0 -0 -0 -0 -0 -0 -0 -0 -0 -0 -0 -0 -0 -0 -0 -0 -0 -0 -0 -0 -0 -0 -0 -0 -0 -0 -0 -0 -0 -0 -0 -0 -0 -0 -0 -0 -0
-0 -0 -0 -0 -0 -0 -0 -0 -0 -0 -0 -0 -0 -0 -0 -0 -0 -0 -0 -0 -0 -0 -0 -0 -0 -0 -0 -0 -0 -0 -0 -0 -0 -0 -0 -0 -0 -0 -0 -0 -0 -0 -0 -0 -0 -0 -0
-0 -0 -1 -0 -0 -0 -0 -0 -0 -0 -0 -0 -0 -0 -0 -0 -0 -0 -0 -0 -0 -0 -0 -0 -0 -0 -0 -0 -0 -0 -0 -0 -0 -0 -0 -0 -0 -0 -0 -0 -0 -0 -0 -0 -0 -0 -0
-0 -0 -0 -2 -0 -0 -0 -0 -0 -0 -0 -0 -0 -0 -0 -0 -0 -0 -0 -0 -0 -0 -0 -0 -0 -0 -0 -0 -0 -0 -0 -0 -0 -0 -0 -0 -0 -0 -0 -0 -0 -0 -0 -0 -0 -0 -0
-0 -0 -0 -1 -0 -0 -0 -0 -0 -23 -0 -0 -0 -0 -0 -0 -0 -0 -0 -0 -0 -0 -0 -0 -0 -0 -0 -0 -0 -0 -0 -0 -0 -0 -0 -0 -0 -0 -0 -0 -0 -0 -0 -0 -0 -0 -0
Wind_Speed
12 13 14 13 13 14 15 15 16 16 18 20 21 20 20 21 21 14 10 9 10 6 12 11 13 14 6 5 3 4 1 6 11 4 4 6 5 5 7 6 4 4 3 3 2 5 5
11 12 12 13 14 13 14 14 15 16 16 19 20 19 16 15 20 21 16 14 14 9 11 11 9 6 2 5 4 7 4 9 11 4 4 5 8 5 6 4 1 4 6 4 5 4 3
11 10 10 11 13 13 13 13 14 16 16 16 18 20 17 10 12 19 13 10 12 11 11 12 12 4 6 3 4 6 6 4 7 6 4 5 4 1 6 6 4 6 7 3 7 5 2
11 11 11 10 11 12 12 13 13 15 16 16 17 17 17 15 7 3 10 9 12 10 10 2 13 5 3 5 5 1 3 5 5 4 3 3 5 6 2 4 6 5 5 5 3 5 2
11 11 12 12 11 11 11 13 13 13 15 16 17 18 16 16 12 9 7 5 6 7 10 8 1 1 4 7 5 8 7 5 5 3 2 2 4 4 2 6 5 7 5 4 2 3 1
13 13 12 11 11 11 11 12 14 13 13 16 16 16 18 16 13 12 10 6 8 6 6 2 3 1 4 4 5 6 6 6 4 5 4 3 5 5 4 3 8 6 7 4 4 2 3
14 15 16 15 13 12 11 10 12 14 13 13 15 17 16 17 15 11 4 3 6 3 5 1 6 2 2 3 2 3 2 5 5 8 3 3 7 5 4 1 5 8 7 7 1 3 2
14 14 15 16 14 13 11 12 10 12 12 12 13 15 16 17 12 14 4 6 3 0 5 3 4 1 2 2 4 5 3 5 5 5 1 7 5 1 2 4 7 6 9 4 1 4 1
13 15 15 16 16 15 12 12 11 10 12 12 12 12 15 16 1 6 5 3 2 2 1 6 4 3 3 5 4 7 3 4 7 7 6 6 1 1 2 4 7 5 8 5 5 2 4
13 14 16 17 17 16 14 12 12 11 10 12 14 13 14 14 5 1 3 4 2 3 6 11 8 6 4 0 6 2 4 5 8 7 5 6 5 3 5 6 2 4 1 5 8 5 3
12 14 16 17 17 17 15 12 12 11 11 9 11 14 14 8 2 3 4 5 1 1 6 11 9 4 6 7 1 8 3 8 6 3 4 2 5 6 9 2 2 5 3 5 4 6 4
12 14 15 17 17 18 17 15 13 11 11 11 10 10 11 4 3 1 4 2 3 9 2 8 5 7 5 8 5 5 7 9 5 7 8 4 1 4 2 3 3 8 6 8 5 3 3
11 13 14 16 17 18 17 16 15 12 10 10 11 10 4 1 2 4 2 3 7 8 5 7 4 5 4 7 7 6 6 7 4 7 5 6 5 4 4 5 2 4 6 4 5 5 5
10 12 14 15 17 18 17 16 15 13 12 11 11 5 3 1 3 2 3 6 12 5 5 3 3 2 6 6 5 6 3 5 5 4 5 5 6 7 7 3 3 3 3 7 7 4 4
11 10 12 14 17 17 18 17 16 13 13 13 6 3 2 2 3 1 6 8 7 5 3 6 3 6 6 5 4 5 5 2 1 4 5 6 3 4 4 3 3 2 3 4 9 3 3
12 11 11 14 16 17 18 19 18 15 12 9 2 2 3 5 2 4 8 4 1 3 1 0 3 3 2 5 4 4 3 2 3 3 1 6 6 2 3 1 5 2 6 4 4 3 4
11 11 12 12 15 17 18 19 19 19 18 3 3 4 3 4 2 7 6 2 2 2 2 2 2 3 3 4 4 3 2 3 4 5 3 4 4 3 1 1 4 2 2 6 4 2 4
9 12 11 12 13 16 18 19 20 20 17 6 2 4 2 1 6 2 3 2 2 2 4 3 2 2 3 3 4 3 3 2 5 3 2 1 5 4 1 1 1 1 2 3 5 3 2
8 9 12 11 8 14 16 19 20 20 12 2 3 1 3 3 5 2 0 2 3 5 3 3 5 5 4 3 3 2 2 2 4 3 2 0 3 4 5 3 3 2 3 4 5 3 6
5 6 9 11 9 9 14 17 18 19 12 4 3 4 5 6 1 6 2 1 2 1 2 3 1 3 3 6 6 3 3 4 4 3 6 3 3 4 6 3 3 2 3 4 4 3 4
8 7 6 8 10 7 10 14 18 18 12 3 4 1 2 2 4 3 2 1 1 2 2 3 3 4 2 3 2 3 1 1 4 5 4 4 3 3 1 2 2 3 5 8 10 7 9
10 8 6 6 7 8 8 11 15 18 12 5 3 3 3 1 2 2 3 1 1 0 3 3 4 1 3 4 1 3 3 1 0 4 3 3 3 2 0 0 2 5 9 9 6 4 10
11 9 9 7 6 6 6 9 13 17 8 3 1 1 4 3 3 2 1 2 2 2 1 2 1 2 3 2 1 2 3 4 4 5 3 3 4 3 4 3 6 7 7 7 5 5 6
12 11 10 8 5 5 4 7 10 12 8 3 0 2 4 2 1 2 0 0 1 1 2 1 2 2 1 5 4 3 7 8 8 7 3 5 4 2 3 3 1 5 4 5 8 7 11
13 12 11 9 6 4 5 4 6 8 7 4 1 2 2 0 1 2 1 3 2 3 3 2 3 0 1 3 3 3 4 1 4 5 6 4 3 3 3 2 8 2 3 5 4 6 6
14 13 12 10 8 5 4 2 4 5 5 4 2 1 3 4 3 1 3 1 3 2 2 1 1 0 4 3 3 2 2 1 1 2 3 4 5 5 2 1 5 3 2 3 3 5 4
6 13 12 10 10 8 5 4 4 3 4 3 1 1 3 2 3 2 1 3 4 2 2 1 2 2 3 2 1 2 2 1 2 4 3 2 3 3 2 3 10 6 4 4 2 5 1
16 7 12 11 11 9 7 7 6 5 3 3 0 0 2 2 3 2 1 2 2 2 4 3 3 2 3 2 3 2 2 3 1 4 6 6 6 4 3 2 8 6 4 5 5 3 2
15 11 11 11 10 10 9 8 7 7 6 4 1 2 1 3 2 1 0 3 4 4 5 1 2 2 4 5 1 3 2 1 4 3 1 3 7 6 10 9 4 6 5 2 2 3 5
Wind_Direction
7 15 6 3 10 13 11 11 7 358 360 3 4 8 22 56 46 46 45 49 51 64 114 129 116 119 97 73 204 162 103 12 323 154 175 175 142 163 146 134 119 97 142 64 35 94 75
10 11 2 359 3 5 3 7 4 355 360 3 0 5 8 36 49 58 42 60 60 65 86 70 25 333 73 151 147 153 60 29 270 155 208 202 179 191 101 107 131 132 107 101 40 31 51
12 7 0 359 351 353 354 360 1 355 353 2 2 3 1 9 36 85 71 60 72 47 19 3 357 342 69 171 177 132 120 177 238 169 194 233 158 195 139 105 179 152 93 82 26 352 74
11 7 3 357 346 345 344 346 356 353 351 354 358 4 359 355 342 11 137 142 132 141 143 125 325 358 66 139 135 130 114 238 226 216 243 262 137 105 78 112 48 82 62 112 342 358 337
10 6 9 2 349 340 339 335 345 351 347 346 355 354 2 353 345 312 227 202 190 192 223 202 31 293 113 131 114 224 170 213 155 176 279 110 73 99 75 101 62 15 132 106 128 44 322
11 6 4 2 356 344 334 332 335 341 346 346 351 352 350 345 346 334 287 225 254 308 291 196 213 156 133 208 155 170 187 178 147 138 134 69 65 87 37 94 176 149 106 76 138 353 38
11 9 5 4 1 350 339 331 331 333 341 347 347 348 346 339 346 349 21 74 11 349 15 76 285 189 106 304 138 62 194 126 97 73 116 0 85 142 167 134 146 121 103 111 48 339 87
11 9 6 2 2 357 345 330 337 332 335 340 347 344 342 340 343 359 54 66 67 251 322 345 308 31 131 212 112 19 126 102 86 101 51 23 85 21 92 89 103 90 112 77 63 18 99
10 10 7 4 3 1 351 337 333 336 334 334 336 341 339 338 20 38 67 51 345 110 282 344 321 7 345 54 52 344 66 99 94 62 47 99 320 341 138 59 95 36 122 167 147 112 62
14 8 7 7 6 5 358 344 338 332 336 336 332 335 342 337 54 235 50 326 331 163 68 332 348 5 7 23 58 343 42 126 44 114 87 75 334 93 74 75 60 102 334 109 111 87 175
10 11 7 6 8 8 4 354 341 335 330 336 337 336 340 31 198 64 297 317 240 62 64 314 317 293 346 73 223 5 317 36 82 62 102 309 20 53 61 329 340 151 116 95 94 89 91
6 7 7 5 9 8 7 1 353 345 336 333 335 342 340 18 48 198 305 306 64 46 350 333 328 351 31 13 25 319 38 47 143 69 40 83 17 58 94 38 66 153 83 55 60 80 37
355 1 3 5 5 7 7 5 359 350 343 337 333 332 20 92 286 321 350 61 42 83 277 328 333 4 74 10 34 38 30 27 75 83 11 7 8 346 38 76 40 72 65 25 11 9 220
348 351 357 3 4 4 3 5 359 353 351 340 329 341 355 57 319 310 54 56 65 252 273 313 310 11 70 5 23 20 67 39 18 64 98 113 352 2 339 43 154 51 120 148 177 188 253
340 347 351 357 3 2 359 360 2 349 335 335 341 351 4 311 328 10 72 53 173 205 306 349 319 70 7 5 100 70 47 68 312 1 115 122 31 317 36 357 36 190 61 147 104 45 37
335 339 348 352 356 358 357 358 359 354 342 339 63 29 301 325 356 58 69 110 134 226 254 239 60 22 93 351 62 62 22 325 335 28 141 196 87 10 318 323 36 76 145 74 6 136 254
324 334 345 351 352 354 355 357 357 353 344 334 53 54 266 342 61 44 92 87 322 280 296 48 125 67 57 21 55 41 15 349 358 342 73 146 99 278 2 23 170 78 52 52 107 106 168
324 327 333 343 352 349 354 355 357 356 351 47 83 44 311 32 54 37 79 161 189 353 12 351 68 87 105 55 51 74 80 15 334 299 46 3 116 114 115 317 349 82 147 136 123 211 73
307 321 323 335 355 350 352 354 356 360 24 24 72 270 326 67 91 21 160 46 40 12 28 50 25 16 17 75 87 104 120 245 348 62 97 36 34 73 359 7 4 225 188 110 100 89 200
281 298 318 321 334 0 351 351 354 0 5 81 67 36 341 51 10 116 125 71 99 32 66 359 122 107 79 30 21 110 50 5 355 45 53 93 88 130 176 188 133 193 187 178 127 129 192
243 269 297 310 326 352 2 351 350 353 353 89 30 17 195 354 13 54 64 77 59 49 38 25 49 38 76 104 88 106 146 8 26 352 38 72 96 71 326 309 263 234 200 183 193 196 196
233 250 272 301 320 334 360 357 354 353 351 76 98 101 12 64 307 90 20 25 80 356 5 1 93 76 45 105 86 194 144 216 145 15 60 358 160 133 32 223 192 257 231 215 233 269 274
228 235 255 277 305 327 340 8 4 6 20 68 325 33 105 329 7 55 255 152 135 150 32 86 121 79 43 44 65 88 103 95 111 143 118 79 122 74 273 358 309 284 223 183 199 204 191
221 224 236 255 284 292 339 25 19 23 54 118 261 93 81 294 96 196 224 103 104 85 123 44 46 95 147 91 108 89 59 65 57 28 31 128 106 111 232 354 351 234 163 180 205 235 218
220 219 224 227 243 264 301 79 39 30 42 88 145 93 97 328 205 311 161 109 87 39 52 69 30 285 73 72 48 28 348 104 42 26 11 30 105 73 116 229 295 110 189 170 171 279 194
214 216 221 218 222 239 249 178 79 45 55 92 100 140 101 112 270 355 134 187 163 150 37 66 60 112 62 73 71 115 239 255 340 53 30 63 76 105 59 44 256 248 211 192 161 306 207
273 211 213 213 214 221 231 227 148 91 67 101 105 194 101 101 279 99 167 186 122 92 118 327 165 91 40 84 102 188 267 183 226 183 159 70 35 156 162 247 281 240 164 157 26 256 224
14 337 212 210 208 210 218 223 201 152 115 98 236 222 120 146 266 168 100 135 70 107 151 197 64 340 50 127 150 218 187 229 151 172 181 173 148 192 127 220 288 154 75 176 224 278 268
7 2 359 214 209 210 210 213 213 180 142 108 36 331 28 131 224 5 26 171 167 163 142 92 201 172 187 101 171 116 198 121 180 255 317 252 192 182 188 215 234 210 228 238 207 262 269